sat.trackr.live / text

‹ back to catalog

STARLINK-37078

NORAD 68174 · 2026-050H

PAYLOAD ACTIVE UNKNOWN

§ Identity

Operator
Country
US
Launch date
2026-03-14
Launch site
AFETR
Launch vehicle
Mass (kg)
RCS (m²)

Purposes: comms

External: N2YO · Heavens-Above · Gunter

§ Orbital elements

Epoch: 2026-05-24T16:22:36.175296Z

Period
93.85 min
Inclination
53.1603°
Eccentricity
0.0001133
Mean motion
15.34399428 rev/d
Perigee alt
461.9 km
Apogee alt
463.5 km
Semi-major
6,840.8 km
B*
6.2399e-4
RAAN
273.3681°
Arg perigee
78.3879°
Mean anomaly
281.7250°
Rev number
1,232

§ Raw data

STARLINK-370781 68174U 26050H   26144.68236314  .00020764  00000+0  62399-3 0  99992 68174  53.1603 273.3681 0001133  78.3879 281.7250 15.34399428 12327

JSON: /api/v1/satellites/68174 · /tle

For live sub-satellite position, see the globe view (requires WebGL).

§ Visibility from observer

Set your observer location to see the next 7 days of passes ≥ 10°. The values pass through the URL so the page stays shareable.

No JS? Fill the form by hand. The geolocation button needs JavaScript.